WX7FGZ-3 Weather Reports


Display with metric or nautical units.
time (UTC)temp
F
wind
direction
speed
MPH
gust
MPH
rain 1hr
in
rain 24hr
in
rain mn
in
humidity
%
barometer
mb
20260505094022 46 232 2.0 7.0 0.00 0.00 0.00 55 1005.9
20260505093021 46 231 1.0 5.0 0.00 0.00 0.00 53 1005.9
20260505091520 46 231 1.0 2.0 0.00 0.00 0.00 51 1005.4
20260505091149 46 231 1.0 5.0 0.00 0.00 0.00 51 1005.5
20260505091020 46 231 1.0 5.0 0.00 0.00 0.00 51 1005.5
20260505090519 46 230 1.0 3.0 0.00 0.00 0.00 51 1005.6
20260505090020 46 230 2.0 4.0 0.00 0.00 0.00 51 1005.5
20260505085519 46 230 2.0 6.0 0.00 0.00 0.00 50 1005.7
20260505085108 46 230 2.0 4.0 0.00 0.00 0.00 50 1005.7
20260505085018 46 230 2.0 4.0 0.00 0.00 0.00 50 1005.7
20260505084518 47 229 1.0 6.0 0.00 0.00 0.00 50 1005.8
20260505084018 47 229 0.0 2.0 0.00 0.00 0.00 50 1005.7
20260505083518 47 229 0.0 4.0 0.00 0.00 0.00 50 1005.8
20260505083018 47 229 1.0 3.0 0.00 0.00 0.00 49 1005.9
20260505082017 47 229 1.0 6.0 0.00 0.00 0.00 49 1006.0
20260505081516 47 235 1.0 4.0 0.00 0.00 0.00 49 1006.1
20260505080516 47 236 1.0 3.0 0.00 0.00 0.00 47 1006.3
20260505080017 48 236 2.0 5.0 0.00 0.00 0.00 46 1006.4
20260505075515 48 236 2.0 5.0 0.00 0.00 0.00 46 1006.5
20260505074515 48 246 3.0 9.0 0.00 0.00 0.00 45 1006.6
20260505074425 50 247 4.0 11.0 0.00 0.00 0.00 39 1007.0
20260505074403 50 231 4.0 10.0 0.00 0.00 0.00 38 1007.0
20260505074015 48 252 2.0 8.0 0.00 0.00 0.00 45 1006.6
20260505073514 48 201 2.0 5.0 0.00 0.00 0.00 45 1006.7
20260505073014 48 200 2.0 6.0 0.00 0.00 0.00 45 1006.8
20260505072514 48 229 3.0 7.0 0.00 0.00 0.00 45 1007.0
20260505071513 49 250 3.0 7.0 0.00 0.00 0.00 44 1006.8
20260505070512 49 200 4.0 10.0 0.00 0.00 0.00 43 1006.7
20260505064011 49 250 4.0 8.0 0.00 0.00 0.00 41 1006.8
20260505063511 49 225 4.0 10.0 0.00 0.00 0.00 40 1007.0
20260505062510 50 259 4.0 12.0 0.00 0.00 0.00 40 1007.1
20260505061510 50 247 4.0 11.0 0.00 0.00 0.00 39 1007.0
20260505061009 50 242 4.0 10.0 0.00 0.00 0.00 38 1007.0
20260505060509 50 231 4.0 10.0 0.00 0.00 0.00 38 1007.0
20260505060009 50 265 4.0 9.0 0.00 0.00 0.00 37 1007.1
20260505055509 50 245 5.0 12.0 0.00 0.00 0.00 37 1006.8
20260505054508 51 236 6.0 14.0 0.00 0.00 0.00 35 1006.8
20260505053007 51 270 4.0 14.0 0.00 0.00 0.00 33 1006.9
20260505052554 51 248 3.0 8.0 0.00 0.00 0.00 33 1007.1
20260505052507 51 248 3.0 8.0 0.00 0.00 0.00 33 1007.1
20260505051506 51 232 4.0 10.0 0.00 0.00 0.00 32 1007.1
20260505041702 52 238 7.0 15.0 0.00 0.00 0.00 30 1007.0
20260505041503 52 238 7.0 15.0 0.00 0.00 0.00 30 1007.0
20260505041003 52 238 7.0 16.0 0.00 0.00 0.00 29 1006.8
20260505040502 53 236 6.0 11.0 0.00 0.00 0.00 28 1006.8
20260505040002 53 246 7.0 17.0 0.00 0.00 0.00 28 1006.7
20260505035502 53 254 6.0 13.0 0.00 0.00 0.00 27 1006.8
20260505034501 53 218 5.0 13.0 0.00 0.00 0.00 26 1006.8
20260505033000 53 231 5.0 16.0 0.00 0.00 0.00 23 1006.6
20260505032500 53 244 4.0 10.0 0.00 0.00 0.00 22 1006.6
20260505031459 54 222 5.0 12.0 0.00 0.00 0.00 20 1006.5
20260505030459 54 228 3.0 9.0 0.00 0.00 0.00 20 1006.5
20260505025458 55 248 2.0 8.0 0.00 0.00 0.00 20 1006.5
20260505024458 55 186 4.0 11.0 0.00 0.00 0.00 21 1006.0
20260505023457 55 237 1.0 6.0 0.00 0.00 0.00 22 1005.9
20260505022456 56 242 4.0 10.0 0.00 0.00 0.00 21 1005.6
20260505020610 57 240 4.0 9.0 0.00 0.00 0.00 18 1005.7
20260505020557 58 232 4.0 12.0 0.00 0.00 0.00 18 1005.5
20260505020455 57 263 3.0 9.0 0.00 0.00 0.00 18 1005.4
20260505015455 57 219 4.0 12.0 0.00 0.00 0.00 18 1005.6
20260505014955 57 240 4.0 9.0 0.00 0.00 0.00 18 1005.7
20260505014454 58 232 4.0 12.0 0.00 0.00 0.00 18 1005.5
20260505014114 63 229 7.0 10.0 0.00 0.00 0.00 27 1005.2
20260505013954 58 236 5.0 11.0 0.00 0.00 0.00 19 1005.4
20260505012453 59 223 4.0 12.0 0.00 0.00 0.00 20 1005.1
20260505011953 59 242 4.0 15.0 0.00 0.00 0.00 21 1005.0
20260505011452 59 250 4.0 8.0 0.00 0.00 0.00 22 1005.0
20260505010952 59 258 5.0 12.0 0.00 0.00 0.00 23 1004.9
20260505005952 60 193 4.0 7.0 0.00 0.00 0.00 24 1005.0
20260505005451 60 214 5.0 11.0 0.00 0.00 0.00 24 1005.0
20260505004951 60 247 6.0 14.0 0.00 0.00 0.00 23 1005.1
20260505004451 60 229 5.0 15.0 0.00 0.00 0.00 23 1005.1
20260505003951 60 236 4.0 15.0 0.00 0.00 0.00 24 1005.2
20260505003450 60 243 4.0 10.0 0.00 0.00 0.00 24 1005.2
20260505002950 60 231 4.0 10.0 0.00 0.00 0.00 25 1005.1
20260505002450 61 283 4.0 10.0 0.00 0.00 0.00 24 1005.1
20260505001950 61 284 6.0 17.0 0.00 0.00 0.00 24 1005.0
20260505001449 61 239 6.0 15.0 0.00 0.00 0.00 23 1005.2
20260505000949 61 268 4.0 10.0 0.00 0.00 0.00 23 1005.3
20260505000449 62 221 4.0 12.0 0.00 0.00 0.00 23 1005.1
20260504234947 62 250 6.0 17.0 0.00 0.00 0.00 22 1005.0
20260504234447 62 288 7.0 15.0 0.00 0.00 0.00 22 1005.0
20260504232946 63 210 7.0 19.0 0.00 0.00 0.00 20 1004.8
20260504232446 63 255 5.0 14.0 0.00 0.00 0.00 20 1005.0
20260504231946 63 218 7.0 13.0 0.00 0.00 0.00 19 1004.7
20260504231445 63 227 5.0 13.0 0.00 0.00 0.00 22 1004.6
20260504230945 63 269 7.0 11.0 0.00 0.00 0.00 26 1004.8
20260504230445 63 275 7.0 19.0 0.00 0.00 0.00 27 1004.8
20260504224444 63 238 5.0 12.0 0.00 0.00 0.00 27 1005.3
20260504223944 63 244 5.0 12.0 0.00 0.00 0.00 27 1005.3
20260504223443 63 225 7.0 13.0 0.00 0.00 0.00 27 1005.5
20260504222943 63 229 6.0 16.0 0.00 0.00 0.00 26 1005.1
20260504221943 63 229 7.0 10.0 0.00 0.00 0.00 27 1005.2
20260504221442 63 252 8.0 17.0 0.00 0.00 0.00 27 1005.3
20260504220931 44 144 0.0 2.0 0.00 0.00 0.00 55 1007.7
20260504215942 65 281 6.0 15.0 0.00 0.00 0.00 26 1005.8
20260504215441 64 294 6.0 18.0 0.00 0.00 0.00 26 1005.8
20260504214441 64 218 6.0 16.0 0.00 0.00 0.00 26 1005.9
20260504213941 64 219 6.0 16.0 0.00 0.00 0.00 26 1006.0
20260504212939 65 281 5.0 11.0 0.00 0.00 0.00 28 1005.9
20260504211939 64 299 5.0 15.0 0.00 0.00 0.00 29 1006.1
20260504210438 63 163 6.0 11.0 0.00 0.00 0.00 25 1006.1
20260504210015 64 216 8.0 13.0 0.00 0.00 0.00 26 1005.9
20260504205938 64 216 8.0 13.0 0.00 0.00 0.00 26 1005.9
20260504204937 64 283 4.0 16.0 0.00 0.00 0.00 26 1006.1
20260504204437 64 190 4.0 9.0 0.00 0.00 0.00 31 1005.7
20260504203436 64 217 3.0 3.0 0.00 0.00 0.00 29 1006.2
20260504201936 64 261 5.0 16.0 0.00 0.00 0.00 32 1006.1
20260504200935 64 150 8.0 17.0 0.00 0.00 0.00 29 1006.4
20260504200434 64 279 8.0 17.0 0.00 0.00 0.00 29 1006.3
20260504195935 64 289 7.0 17.0 0.00 0.00 0.00 29 1006.4
20260504194934 62 234 4.0 8.0 0.00 0.00 0.00 29 1006.1
20260504193933 63 225 6.0 15.0 0.00 0.00 0.00 30 1006.6
20260504193433 64 231 7.0 10.0 0.00 0.00 0.00 30 1006.6
20260504192932 63 283 5.0 12.0 0.00 0.00 0.00 30 1006.5
20260504192432 63 307 3.0 10.0 0.00 0.00 0.00 28 1006.3
20260504191932 63 253 4.0 9.0 0.00 0.00 0.00 28 1006.2
20260504191432 62 275 6.0 12.0 0.00 0.00 0.00 31 1006.7
20260504185931 62 315 4.0 13.0 0.00 0.00 0.00 32 1006.9
20260504184430 60 277 5.0 11.0 0.00 0.00 0.00 32 1007.0
20260504183430 60 230 5.0 15.0 0.00 0.00 0.00 32 1007.0
20260504182929 60 265 6.0 13.0 0.00 0.00 0.00 35 1007.2
20260504182429 60 243 6.0 10.0 0.00 0.00 0.00 32 1007.1
20260504181428 60 275 6.0 15.0 0.00 0.00 0.00 36 1007.0
20260504175928 59 273 6.0 12.0 0.00 0.00 0.00 37 1007.7
20260504175427 58 250 5.0 12.0 0.00 0.00 0.00 37 1007.5
20260504174427 58 228 6.0 12.0 0.00 0.00 0.00 38 1007.5
20260504173927 58 241 5.0 14.0 0.00 0.00 0.00 38 1007.4
20260504173426 58 286 5.0 11.0 0.00 0.00 0.00 39 1007.5
20260504172926 58 277 5.0 10.0 0.00 0.00 0.00 40 1007.4
20260504172425 57 281 6.0 13.0 0.00 0.00 0.00 40 1007.7
20260504171926 57 290 5.0 15.0 0.00 0.00 0.00 39 1007.8
20260504171425 57 305 5.0 9.0 0.00 0.00 0.00 40 1007.8
20260504170925 56 271 7.0 12.0 0.00 0.00 0.00 40 1007.8
20260504170424 56 275 6.0 16.0 0.00 0.00 0.00 40 1007.7
20260504150417 51 150 1.0 5.0 0.00 0.00 0.00 48 1007.9
20260504140914 47 144 1.0 3.0 0.00 0.00 0.00 60 1008.0
20260504140414 46 144 1.0 3.0 0.00 0.00 0.00 58 1007.9
20260504130410 44 144 1.0 2.0 0.00 0.00 0.00 55 1007.9
20260504110506 44 144 1.0 3.0 0.00 0.00 0.00 58 1007.6
20260504110447 46 144 1.0 3.0 0.00 0.00 0.00 51 1007.7
20260504110429 44 144 1.0 3.0 0.00 0.00 0.00 58 1007.6
20260504110403 46 144 1.0 3.0 0.00 0.00 0.00 51 1007.7